Time,TemperatureF,DewpointF,PressureIn,WindDirection,WindDirectionDegrees,WindSpeedMPH,WindSpeedGustMPH,Humidity,HourlyPrecipIn,Conditions,Clouds,dailyrainin,SoftwareType,DateUTC
2013-11-03 00:03:00,19.6,18.6,29.74,NW,313,0.0,0.0,96,0.00,,,0.00,LWC V2.00 B2112,2013-11-03 08:03:00,
2013-11-03 00:08:00,19.6,18.4,29.74,NW,312,0.0,0.0,95,0.00,,,0.00,LWC V2.00 B2112,2013-11-03 08:08:00,
2013-11-03 00:13:00,19.8,18.8,29.74,NW,313,0.0,0.0,96,0.00,,,0.00,LWC V2.00 B2112,2013-11-03 08:13:00,
2013-11-03 00:18:00,19.9,18.9,29.74,NW,313,0.0,0.0,96,0.00,,,0.00,LWC V2.00 B2112,2013-11-03 08:18:00,
2013-11-03 00:23:00,20.0,19.0,29.74,NW,312,0.0,0.0,96,0.00,,,0.00,LWC V2.00 B2112,2013-11-03 08:23:00,
2013-11-03 00:28:00,20.1,19.1,29.75,NW,312,0.0,0.0,96,0.00,,,0.00,LWC V2.00 B2112,2013-11-03 08:28:00,
2013-11-03 00:33:00,20.2,19.2,29.75,NW,313,0.0,0.0,96,0.00,,,0.00,LWC V2.00 B2112,2013-11-03 08:33:00,
2013-11-03 00:38:00,20.2,19.2,29.75,NW,313,0.0,0.0,96,0.00,,,0.00,LWC V2.00 B2112,2013-11-03 08:38:00,
2013-11-03 00:43:00,20.1,19.1,29.75,NW,313,0.0,0.0,96,0.00,,,0.00,LWC V2.00 B2112,2013-11-03 08:43:00,
2013-11-03 00:48:00,19.9,18.7,29.75,NW,313,0.0,0.0,95,0.00,,,0.00,LWC V2.00 B2112,2013-11-03 08:48:00,
2013-11-03 00:53:00,19.9,18.7,29.75,NW,312,0.0,0.0,95,0.00,,,0.00,LWC V2.00 B2112,2013-11-03 08:53:00,
2013-11-03 00:58:00,19.9,18.7,29.75,NW,313,0.0,0.0,95,0.00,,,0.00,LWC V2.00 B2112,2013-11-03 08:58:00,
2013-11-03 01:03:00,20.2,19.2,29.75,NW,313,0.0,0.0,96,0.00,,,0.00,LWC V2.00 B2112,2013-11-03 09:03:00,
2013-11-03 01:08:00,20.4,19.4,29.75,NW,313,0.0,0.0,96,0.00,,,0.00,LWC V2.00 B2112,2013-11-03 09:08:00,
2013-11-03 01:13:00,20.5,19.5,29.75,NW,312,0.0,0.0,96,0.00,,,0.00,LWC V2.00 B2112,2013-11-03 09:13:00,
2013-11-03 01:18:00,20.9,19.9,29.75,NW,313,0.0,0.0,96,0.00,,,0.00,LWC V2.00 B2112,2013-11-03 09:18:00,
2013-11-03 01:23:00,20.9,19.9,29.75,NW,313,0.0,0.0,96,0.00,,,0.00,LWC V2.00 B2112,2013-11-03 09:23:00,
2013-11-03 01:28:00,20.9,19.9,29.75,NW,313,0.0,0.0,96,0.00,,,0.00,LWC V2.00 B2112,2013-11-03 09:28:00,
2013-11-03 01:33:00,21.0,20.0,29.75,NW,312,0.0,0.0,96,0.00,,,0.00,LWC V2.00 B2112,2013-11-03 09:33:00,
2013-11-03 01:38:00,21.3,20.3,29.75,NW,313,0.0,0.0,96,0.00,,,0.00,LWC V2.00 B2112,2013-11-03 09:38:00,
2013-11-03 01:43:00,21.5,20.5,29.75,NW,313,0.0,0.0,96,0.00,,,0.00,LWC V2.00 B2112,2013-11-03 09:43:00,
2013-11-03 01:48:00,21.9,20.9,29.76,NW,312,0.0,0.0,96,0.00,,,0.00,LWC V2.00 B2112,2013-11-03 09:48:00,
2013-11-03 01:53:00,22.1,21.1,29.76,NW,313,0.0,0.0,96,0.00,,,0.00,LWC V2.00 B2112,2013-11-03 09:53:00,
2013-11-03 01:58:00,22.4,21.4,29.75,NW,312,0.0,0.0,96,0.00,,,0.00,LWC V2.00 B2112,2013-11-03 09:58:00,
2013-11-03 01:03:00,22.3,21.1,29.76,NW,313,0.0,0.0,95,0.00,,,0.00,LWC V2.00 B2112,2013-11-03 10:03:00,
2013-11-03 01:08:00,22.5,21.3,29.76,NW,313,0.0,0.0,95,0.00,,,0.00,LWC V2.00 B2112,2013-11-03 10:08:00,
2013-11-03 01:13:00,22.7,21.5,29.76,NW,313,0.0,0.0,95,0.00,,,0.00,LWC V2.00 B2112,2013-11-03 10:13:00,
2013-11-03 01:18:00,22.5,21.3,29.76,NW,312,0.0,0.0,95,0.00,,,0.00,LWC V2.00 B2112,2013-11-03 10:18:00,
2013-11-03 01:23:00,22.5,21.3,29.76,NW,313,0.0,0.0,95,0.00,,,0.00,LWC V2.00 B2112,2013-11-03 10:23:00,
2013-11-03 01:28:00,22.5,21.0,29.76,NW,313,0.0,0.0,94,0.00,,,0.00,LWC V2.00 B2112,2013-11-03 10:28:00,
2013-11-03 01:33:00,22.5,21.0,29.76,NW,313,0.0,0.0,94,0.00,,,0.00,LWC V2.00 B2112,2013-11-03 10:33:00,
2013-11-03 01:38:00,22.4,20.9,29.76,NW,312,0.0,0.0,94,0.00,,,0.00,LWC V2.00 B2112,2013-11-03 10:38:00,
2013-11-03 01:43:00,22.3,20.8,29.75,NW,313,0.0,0.0,94,0.00,,,0.00,LWC V2.00 B2112,2013-11-03 10:43:00,
2013-11-03 01:48:00,22.1,20.6,29.75,NW,313,0.0,0.0,94,0.00,,,0.00,LWC V2.00 B2112,2013-11-03 10:48:00,
2013-11-03 01:53:00,22.1,20.4,29.75,NW,312,0.0,0.0,93,0.00,,,0.00,LWC V2.00 B2112,2013-11-03 10:53:00,
2013-11-03 01:58:00,22.1,20.6,29.75,NW,313,0.0,0.0,94,0.00,,,0.00,LWC V2.00 B2112,2013-11-03 10:58:00,
2013-11-03 02:03:00,22.0,20.3,29.75,NW,313,0.0,0.0,93,0.00,,,0.00,LWC V2.00 B2112,2013-11-03 11:03:00,
2013-11-03 02:08:00,21.9,20.2,29.75,NW,313,0.0,0.0,93,0.00,,,0.00,LWC V2.00 B2112,2013-11-03 11:08:00,
2013-11-03 02:13:00,22.1,20.6,29.75,NW,313,0.0,0.0,94,0.00,,,0.00,LWC V2.00 B2112,2013-11-03 11:13:00,
2013-11-03 02:18:00,22.3,20.8,29.75,NW,312,0.0,0.0,94,0.00,,,0.00,LWC V2.00 B2112,2013-11-03 11:18:00,
2013-11-03 02:23:00,22.3,20.6,29.75,NW,313,0.0,0.0,93,0.00,,,0.00,LWC V2.00 B2112,2013-11-03 11:23:00,
2013-11-03 02:28:00,22.3,20.6,29.75,NW,313,0.0,0.0,93,0.00,,,0.00,LWC V2.00 B2112,2013-11-03 11:28:00,
2013-11-03 02:33:00,22.3,20.8,29.75,NW,312,0.0,0.0,94,0.00,,,0.00,LWC V2.00 B2112,2013-11-03 11:33:00,
2013-11-03 02:38:00,22.3,20.8,29.75,NW,313,0.0,0.0,94,0.00,,,0.00,LWC V2.00 B2112,2013-11-03 11:38:00,
2013-11-03 02:43:00,22.1,20.6,29.75,NW,313,0.0,0.0,94,0.00,,,0.00,LWC V2.00 B2112,2013-11-03 11:43:00,
2013-11-03 02:48:00,22.3,20.8,29.75,NW,313,0.0,0.0,94,0.00,,,0.00,LWC V2.00 B2112,2013-11-03 11:48:00,
2013-11-03 02:53:00,22.3,20.8,29.75,NW,313,0.0,0.0,94,0.00,,,0.00,LWC V2.00 B2112,2013-11-03 11:53:00,
2013-11-03 02:58:00,22.3,20.8,29.75,NW,313,0.0,0.0,94,0.00,,,0.00,LWC V2.00 B2112,2013-11-03 11:58:00,
2013-11-03 03:03:00,22.3,20.8,29.75,NW,313,0.0,0.0,94,0.00,,,0.00,LWC V2.00 B2112,2013-11-03 12:03:00,
2013-11-03 03:08:00,22.1,20.6,29.75,NW,312,0.0,0.0,94,0.00,,,0.00,LWC V2.00 B2112,2013-11-03 12:08:00,
2013-11-03 03:13:00,22.0,20.5,29.75,NW,312,0.0,0.0,94,0.00,,,0.00,LWC V2.00 B2112,2013-11-03 12:13:00,
2013-11-03 03:18:00,22.0,20.5,29.75,NW,312,0.0,0.0,94,0.00,,,0.00,LWC V2.00 B2112,2013-11-03 12:18:00,
2013-11-03 03:23:00,22.0,20.5,29.75,East,80,0.0,0.0,94,0.00,,,0.00,LWC V2.00 B2112,2013-11-03 12:23:00,
2013-11-03 03:28:00,22.0,20.5,29.74,East,79,0.0,0.0,94,0.00,,,0.00,LWC V2.00 B2112,2013-11-03 12:28:00,
2013-11-03 03:33:00,21.8,20.3,29.74,East,80,0.0,0.0,94,0.00,,,0.00,LWC V2.00 B2112,2013-11-03 12:33:00,
2013-11-03 03:38:00,21.6,20.1,29.74,East,80,0.0,0.0,94,0.00,,,0.00,LWC V2.00 B2112,2013-11-03 12:38:00,
2013-11-03 03:43:00,21.6,20.1,29.74,East,80,0.0,0.0,94,0.00,,,0.00,LWC V2.00 B2112,2013-11-03 12:43:00,
2013-11-03 03:48:00,21.6,20.1,29.74,East,80,0.0,0.0,94,0.00,,,0.00,LWC V2.00 B2112,2013-11-03 12:48:00,
2013-11-03 03:53:00,21.5,20.0,29.74,East,80,0.0,0.0,94,0.00,,,0.00,LWC V2.00 B2112,2013-11-03 12:53:00,
2013-11-03 03:58:00,21.3,19.8,29.74,East,80,0.0,0.0,94,0.00,,,0.00,LWC V2.00 B2112,2013-11-03 12:58:00,
2013-11-03 04:03:00,21.2,19.7,29.74,East,80,0.0,0.0,94,0.00,,,0.00,LWC V2.00 B2112,2013-11-03 13:03:00,
2013-11-03 04:08:00,21.1,19.6,29.74,East,80,0.0,0.0,94,0.00,,,0.00,LWC V2.00 B2112,2013-11-03 13:08:00,
2013-11-03 04:13:00,21.2,20.0,29.74,East,80,0.0,0.0,95,0.00,,,0.00,LWC V2.00 B2112,2013-11-03 13:13:00,
2013-11-03 04:18:00,21.2,20.0,29.74,East,80,0.0,0.0,95,0.00,,,0.00,LWC V2.00 B2112,2013-11-03 13:18:00,
2013-11-03 04:23:00,21.1,19.9,29.74,East,80,0.0,0.0,95,0.00,,,0.00,LWC V2.00 B2112,2013-11-03 13:23:00,
2013-11-03 04:28:00,21.0,19.8,29.74,East,79,0.0,0.0,95,0.00,,,0.00,LWC V2.00 B2112,2013-11-03 13:28:00,
2013-11-03 04:33:00,21.0,19.8,29.74,East,80,0.0,0.0,95,0.00,,,0.00,LWC V2.00 B2112,2013-11-03 13:33:00,
2013-11-03 04:38:00,21.0,19.8,29.73,ENE,78,0.0,0.0,95,0.00,,,0.00,LWC V2.00 B2112,2013-11-03 13:38:00,
2013-11-03 04:43:00,21.0,19.8,29.73,East,80,0.0,0.0,95,0.00,,,0.00,LWC V2.00 B2112,2013-11-03 13:43:00,
2013-11-03 04:48:00,20.9,19.7,29.73,North,350,0.0,0.0,95,0.00,,,0.00,LWC V2.00 B2112,2013-11-03 13:48:00,
2013-11-03 04:53:00,20.9,19.7,29.73,North,350,0.0,0.0,95,0.00,,,0.00,LWC V2.00 B2112,2013-11-03 13:53:00,
2013-11-03 04:58:00,20.7,19.5,29.73,North,350,0.0,0.0,95,0.00,,,0.00,LWC V2.00 B2112,2013-11-03 13:58:00,
2013-11-03 05:03:00,20.7,19.5,29.73,North,350,0.0,0.0,95,0.00,,,0.00,LWC V2.00 B2112,2013-11-03 14:03:00,
2013-11-03 05:08:00,20.8,19.6,29.73,NE,52,0.0,0.0,95,0.00,,,0.00,LWC V2.00 B2112,2013-11-03 14:08:00,
2013-11-03 05:13:00,20.5,19.1,29.72,NNE,12,0.0,0.0,94,0.00,,,0.00,LWC V2.00 B2112,2013-11-03 14:13:00,
2013-11-03 05:18:00,21.0,19.8,29.72,NNE,12,0.0,0.0,95,0.00,,,0.00,LWC V2.00 B2112,2013-11-03 14:18:00,
2013-11-03 05:23:00,21.3,20.1,29.72,NNE,12,0.0,0.0,95,0.00,,,0.00,LWC V2.00 B2112,2013-11-03 14:23:00,
2013-11-03 05:28:00,20.9,19.5,29.72,NNE,13,0.0,0.0,94,0.00,,,0.00,LWC V2.00 B2112,2013-11-03 14:28:00,
2013-11-03 05:33:00,20.1,18.2,29.72,NNE,12,0.0,0.0,92,0.00,,,0.00,LWC V2.00 B2112,2013-11-03 14:33:00,
2013-11-03 05:38:00,19.7,18.0,29.72,NNE,12,0.0,0.0,93,0.00,,,0.00,LWC V2.00 B2112,2013-11-03 14:38:00,
2013-11-03 05:43:00,19.7,18.3,29.72,NNE,12,0.0,0.0,94,0.00,,,0.00,LWC V2.00 B2112,2013-11-03 14:43:00,
2013-11-03 05:48:00,20.1,18.9,29.72,NNE,12,0.0,0.0,95,0.00,,,0.00,LWC V2.00 B2112,2013-11-03 14:48:00,
2013-11-03 05:53:00,20.3,19.1,29.72,NNE,12,0.0,0.0,95,0.00,,,0.00,LWC V2.00 B2112,2013-11-03 14:53:00,
2013-11-03 05:58:00,19.9,18.5,29.72,NNE,12,0.0,0.0,94,0.00,,,0.00,LWC V2.00 B2112,2013-11-03 14:58:00,
2013-11-03 06:03:00,19.6,18.2,29.72,NNE,12,0.0,0.0,94,0.00,,,0.00,LWC V2.00 B2112,2013-11-03 15:03:00,
2013-11-03 06:08:00,19.3,17.9,29.71,NNE,12,0.0,0.0,94,0.00,,,0.00,LWC V2.00 B2112,2013-11-03 15:08:00,
2013-11-03 06:13:00,19.2,17.8,29.71,NNE,12,0.0,0.0,94,0.00,,,0.00,LWC V2.00 B2112,2013-11-03 15:13:00,
2013-11-03 06:18:00,19.1,17.7,29.71,NNE,12,0.0,0.0,94,0.00,,,0.00,LWC V2.00 B2112,2013-11-03 15:18:00,
2013-11-03 06:23:00,18.9,17.7,29.71,NNE,12,0.0,0.0,95,0.00,,,0.00,LWC V2.00 B2112,2013-11-03 15:23:00,
2013-11-03 06:28:00,18.8,17.6,29.71,NNE,12,0.0,0.0,95,0.00,,,0.00,LWC V2.00 B2112,2013-11-03 15:28:00,
2013-11-03 06:33:00,18.9,17.7,29.71,NNE,12,0.0,0.0,95,0.00,,,0.00,LWC V2.00 B2112,2013-11-03 15:33:00,
2013-11-03 06:38:00,19.1,17.9,29.71,NNE,12,0.0,0.0,95,0.00,,,0.00,LWC V2.00 B2112,2013-11-03 15:38:00,
2013-11-03 06:43:00,18.9,17.7,29.71,NNE,12,0.0,0.0,95,0.00,,,0.00,LWC V2.00 B2112,2013-11-03 15:43:00,
2013-11-03 06:48:00,18.8,17.6,29.71,NNE,12,0.0,0.0,95,0.00,,,0.00,LWC V2.00 B2112,2013-11-03 15:48:00,
2013-11-03 06:53:00,18.7,17.5,29.71,NNE,12,0.0,0.0,95,0.00,,,0.00,LWC V2.00 B2112,2013-11-03 15:53:00,
2013-11-03 06:58:00,19.2,18.0,29.71,NNE,12,0.0,0.0,95,0.00,,,0.00,LWC V2.00 B2112,2013-11-03 15:58:00,
2013-11-03 07:03:00,19.6,18.6,29.71,NNE,14,0.0,0.0,96,0.00,,,0.00,LWC V2.00 B2112,2013-11-03 16:03:00,
2013-11-03 07:08:00,19.5,18.3,29.71,NNE,12,0.0,0.0,95,0.00,,,0.00,LWC V2.00 B2112,2013-11-03 16:08:00,
2013-11-03 07:13:00,19.2,18.0,29.71,NNE,12,0.0,0.0,95,0.00,,,0.00,LWC V2.00 B2112,2013-11-03 16:13:00,
2013-11-03 07:18:00,19.2,18.0,29.71,NNE,12,0.0,0.0,95,0.00,,,0.00,LWC V2.00 B2112,2013-11-03 16:18:00,
2013-11-03 07:23:00,18.9,17.5,29.71,NNE,12,0.0,0.0,94,0.00,,,0.00,LWC V2.00 B2112,2013-11-03 16:23:00,
2013-11-03 07:28:00,18.9,17.7,29.71,NNE,12,0.0,0.0,95,0.00,,,0.00,LWC V2.00 B2112,2013-11-03 16:28:00,
2013-11-03 07:33:00,18.9,17.7,29.70,NNE,12,0.0,0.0,95,0.00,,,0.00,LWC V2.00 B2112,2013-11-03 16:33:00,
2013-11-03 07:38:00,18.6,17.2,29.71,NNE,12,0.0,0.0,94,0.00,,,0.00,LWC V2.00 B2112,2013-11-03 16:38:00,
2013-11-03 07:43:00,18.8,17.6,29.70,NNE,12,0.0,0.0,95,0.00,,,0.00,LWC V2.00 B2112,2013-11-03 16:43:00,
2013-11-03 07:48:00,19.3,18.4,29.70,NNE,12,0.0,0.0,96,0.00,,,0.00,LWC V2.00 B2112,2013-11-03 16:48:00,
2013-11-03 07:53:00,19.7,18.7,29.70,NNE,12,0.0,0.0,96,0.00,,,0.00,LWC V2.00 B2112,2013-11-03 16:53:00,
2013-11-03 07:58:00,20.7,20.0,29.70,NNE,12,0.0,0.0,97,0.00,,,0.00,LWC V2.00 B2112,2013-11-03 16:58:00,
2013-11-03 08:03:00,21.2,20.2,29.70,North,351,0.0,0.0,96,0.00,,,0.00,LWC V2.00 B2112,2013-11-03 17:03:00,
2013-11-03 08:08:00,21.4,20.4,29.70,NNW,330,0.0,0.0,96,0.00,,,0.00,LWC V2.00 B2112,2013-11-03 17:08:00,
2013-11-03 08:13:00,20.8,19.4,29.70,ESE,113,0.0,0.0,94,0.00,,,0.00,LWC V2.00 B2112,2013-11-03 17:13:00,
2013-11-03 08:18:00,20.1,18.4,29.70,ESE,113,0.0,0.0,93,0.00,,,0.00,LWC V2.00 B2112,2013-11-03 17:18:00,
2013-11-03 08:23:00,20.5,19.3,29.70,NNW,327,0.0,0.0,95,0.00,,,0.00,LWC V2.00 B2112,2013-11-03 17:23:00,
2013-11-03 08:28:00,21.9,20.9,29.70,NNW,327,0.0,0.0,96,0.00,,,0.00,LWC V2.00 B2112,2013-11-03 17:28:00,
2013-11-03 08:33:00,22.7,21.7,29.70,NNW,329,0.0,0.0,96,0.00,,,0.00,LWC V2.00 B2112,2013-11-03 17:33:00,
2013-11-03 08:38:00,22.4,20.9,29.70,NNW,329,0.0,0.0,94,0.00,,,0.00,LWC V2.00 B2112,2013-11-03 17:38:00,
2013-11-03 08:43:00,22.6,21.4,29.70,NNW,327,0.0,0.0,95,0.00,,,0.00,LWC V2.00 B2112,2013-11-03 17:43:00,
2013-11-03 08:48:00,22.8,21.3,29.70,NNW,329,0.0,0.0,94,0.00,,,0.00,LWC V2.00 B2112,2013-11-03 17:48:00,
2013-11-03 08:53:00,23.3,22.1,29.70,NNW,327,0.0,0.0,95,0.00,,,0.00,LWC V2.00 B2112,2013-11-03 17:53:00,
2013-11-03 08:58:00,23.5,22.0,29.69,NNW,327,0.0,0.0,94,0.00,,,0.00,LWC V2.00 B2112,2013-11-03 17:58:00,
2013-11-03 09:03:00,23.8,22.3,29.69,NNW,327,0.0,0.0,94,0.00,,,0.00,LWC V2.00 B2112,2013-11-03 18:03:00,
2013-11-03 09:08:00,23.9,22.2,29.69,NW,325,0.0,0.0,93,0.00,,,0.00,LWC V2.00 B2112,2013-11-03 18:08:00,
2013-11-03 09:13:00,24.0,22.3,29.69,NW,325,0.0,0.0,93,0.00,,,0.00,LWC V2.00 B2112,2013-11-03 18:13:00,
2013-11-03 09:18:00,24.1,22.1,29.68,NW,325,0.0,0.0,92,0.00,,,0.00,LWC V2.00 B2112,2013-11-03 18:18:00,
2013-11-03 09:23:00,24.0,22.0,29.68,ESE,113,0.0,0.0,92,0.00,,,0.00,LWC V2.00 B2112,2013-11-03 18:23:00,
2013-11-03 09:28:00,23.8,22.1,29.68,ESE,113,0.0,0.0,93,0.00,,,0.00,LWC V2.00 B2112,2013-11-03 18:28:00,
2013-11-03 09:33:00,23.9,22.2,29.69,ESE,114,0.0,0.0,93,0.00,,,0.00,LWC V2.00 B2112,2013-11-03 18:33:00,
2013-11-03 09:38:00,23.4,21.4,29.69,SW,221,0.0,0.0,92,0.00,,,0.00,LWC V2.00 B2112,2013-11-03 18:38:00,
2013-11-03 09:43:00,22.9,20.9,29.69,SW,222,0.0,0.0,92,0.00,,,0.00,LWC V2.00 B2112,2013-11-03 18:43:00,
2013-11-03 09:48:00,22.8,21.1,29.69,SE,128,0.0,0.0,93,0.00,,,0.00,LWC V2.00 B2112,2013-11-03 18:48:00,
2013-11-03 09:53:00,23.7,22.5,29.69,West,277,0.0,0.0,95,0.00,,,0.00,LWC V2.00 B2112,2013-11-03 18:53:00,
2013-11-03 09:58:00,24.1,22.6,29.69,West,277,0.0,0.0,94,0.00,,,0.00,LWC V2.00 B2112,2013-11-03 18:58:00,
2013-11-03 10:03:00,24.1,22.4,29.69,West,277,0.0,0.0,93,0.00,,,0.00,LWC V2.00 B2112,2013-11-03 19:03:00,
2013-11-03 10:08:00,24.0,22.3,29.69,West,277,0.0,0.0,93,0.00,,,0.00,LWC V2.00 B2112,2013-11-03 19:08:00,
2013-11-03 10:13:00,24.3,22.6,29.69,West,277,0.0,0.0,93,0.00,,,0.00,LWC V2.00 B2112,2013-11-03 19:13:00,
2013-11-03 10:18:00,24.5,22.8,29.69,West,277,0.0,0.0,93,0.00,,,0.00,LWC V2.00 B2112,2013-11-03 19:18:00,
2013-11-03 10:23:00,24.5,22.8,29.68,West,277,0.0,0.0,93,0.00,,,0.00,LWC V2.00 B2112,2013-11-03 19:23:00,
2013-11-03 10:28:00,24.7,23.2,29.68,West,277,0.0,0.0,94,0.00,,,0.00,LWC V2.00 B2112,2013-11-03 19:28:00,
2013-11-03 10:33:00,24.8,23.3,29.68,West,277,0.0,0.0,94,0.00,,,0.00,LWC V2.00 B2112,2013-11-03 19:33:00,
2013-11-03 10:38:00,25.2,23.7,29.68,West,277,0.0,0.0,94,0.00,,,0.00,LWC V2.00 B2112,2013-11-03 19:38:00,
2013-11-03 10:43:00,25.7,24.2,29.68,West,277,0.0,0.0,94,0.00,,,0.00,LWC V2.00 B2112,2013-11-03 19:43:00,
2013-11-03 10:48:00,26.1,24.4,29.68,West,277,0.0,0.0,93,0.00,,,0.00,LWC V2.00 B2112,2013-11-03 19:48:00,
2013-11-03 10:53:00,26.3,24.3,29.68,West,277,0.0,0.0,92,0.00,,,0.00,LWC V2.00 B2112,2013-11-03 19:53:00,
2013-11-03 10:58:00,26.7,24.7,29.68,West,277,0.0,0.0,92,0.00,,,0.00,LWC V2.00 B2112,2013-11-03 19:58:00,
2013-11-03 11:03:00,26.5,24.2,29.68,West,277,0.0,0.0,91,0.00,,,0.00,LWC V2.00 B2112,2013-11-03 20:03:00,
2013-11-03 11:08:00,25.8,23.5,29.68,West,277,0.0,0.0,91,0.00,,,0.00,LWC V2.00 B2112,2013-11-03 20:08:00,
2013-11-03 11:13:00,25.6,23.6,29.67,West,277,0.0,0.0,92,0.00,,,0.00,LWC V2.00 B2112,2013-11-03 20:13:00,
2013-11-03 11:18:00,25.8,24.1,29.67,West,277,0.0,0.0,93,0.00,,,0.00,LWC V2.00 B2112,2013-11-03 20:18:00,
2013-11-03 11:23:00,26.0,24.3,29.67,West,277,0.0,0.0,93,0.00,,,0.00,LWC V2.00 B2112,2013-11-03 20:23:00,
2013-11-03 11:28:00,26.0,24.3,29.67,West,277,0.0,0.0,93,0.00,,,0.00,LWC V2.00 B2112,2013-11-03 20:28:00,
2013-11-03 11:33:00,26.3,24.6,29.68,West,277,0.0,0.0,93,0.00,,,0.00,LWC V2.00 B2112,2013-11-03 20:33:00,
2013-11-03 11:38:00,26.9,25.2,29.67,West,277,0.0,0.0,93,0.00,,,0.00,LWC V2.00 B2112,2013-11-03 20:38:00,
2013-11-03 11:43:00,27.6,25.8,29.67,West,277,0.0,0.0,93,0.00,,,0.00,LWC V2.00 B2112,2013-11-03 20:43:00,
2013-11-03 11:48:00,28.0,26.0,29.67,West,277,0.0,0.0,92,0.00,,,0.00,LWC V2.00 B2112,2013-11-03 20:48:00,
2013-11-03 11:53:00,28.3,26.0,29.67,West,277,0.0,0.0,91,0.00,,,0.00,LWC V2.00 B2112,2013-11-03 20:53:00,
2013-11-03 11:58:00,28.3,26.3,29.67,WNW,300,0.0,0.0,92,0.00,,,0.00,LWC V2.00 B2112,2013-11-03 20:58:00,
2013-11-03 12:03:00,28.5,26.2,29.67,WNW,300,0.0,0.0,91,0.00,,,0.00,LWC V2.00 B2112,2013-11-03 21:03:00,
2013-11-03 12:08:00,28.7,26.1,29.67,WNW,300,0.0,0.0,90,0.00,,,0.00,LWC V2.00 B2112,2013-11-03 21:08:00,
2013-11-03 12:13:00,28.8,26.2,29.67,WNW,300,0.0,0.0,90,0.00,,,0.00,LWC V2.00 B2112,2013-11-03 21:13:00,
2013-11-03 12:18:00,29.0,26.4,29.66,WNW,300,0.0,0.0,90,0.00,,,0.00,LWC V2.00 B2112,2013-11-03 21:18:00,
2013-11-03 12:23:00,29.3,26.5,29.66,WNW,300,0.0,0.0,89,0.00,,,0.00,LWC V2.00 B2112,2013-11-03 21:23:00,
2013-11-03 12:28:00,29.4,26.6,29.66,WNW,300,0.0,0.0,89,0.00,,,0.00,LWC V2.00 B2112,2013-11-03 21:28:00,
2013-11-03 12:33:00,29.4,26.6,29.66,WNW,300,0.0,0.0,89,0.00,,,0.00,LWC V2.00 B2112,2013-11-03 21:33:00,
2013-11-03 12:38:00,29.5,26.1,29.66,WNW,300,0.0,0.0,87,0.00,,,0.00,LWC V2.00 B2112,2013-11-03 21:38:00,
2013-11-03 12:43:00,29.6,26.5,29.65,WNW,300,0.0,0.0,88,0.00,,,0.00,LWC V2.00 B2112,2013-11-03 21:43:00,
2013-11-03 12:48:00,29.7,26.3,29.65,WNW,300,0.0,0.0,87,0.00,,,0.00,LWC V2.00 B2112,2013-11-03 21:48:00,
2013-11-03 12:53:00,29.9,26.5,29.65,WNW,299,0.0,0.0,87,0.00,,,0.00,LWC V2.00 B2112,2013-11-03 21:53:00,
2013-11-03 12:58:00,30.1,26.4,29.65,WNW,300,0.0,0.0,86,0.00,,,0.00,LWC V2.00 B2112,2013-11-03 21:58:00,
2013-11-03 13:03:00,30.1,26.4,29.65,WNW,300,0.0,0.0,86,0.00,,,0.00,LWC V2.00 B2112,2013-11-03 22:03:00,
2013-11-03 13:08:00,30.3,26.6,29.65,WNW,300,0.0,0.0,86,0.00,,,0.00,LWC V2.00 B2112,2013-11-03 22:08:00,
2013-11-03 13:13:00,30.5,27.1,29.65,WNW,300,0.0,0.0,87,0.00,,,0.00,LWC V2.00 B2112,2013-11-03 22:13:00,
2013-11-03 13:18:00,30.6,27.2,29.65,WNW,300,0.0,0.0,87,0.00,,,0.00,LWC V2.00 B2112,2013-11-03 22:18:00,
2013-11-03 13:23:00,30.8,27.1,29.65,WNW,299,0.0,0.0,86,0.00,,,0.00,LWC V2.00 B2112,2013-11-03 22:23:00,
2013-11-03 13:28:00,30.9,27.2,29.65,WNW,299,0.0,0.0,86,0.00,,,0.00,LWC V2.00 B2112,2013-11-03 22:28:00,
2013-11-03 13:33:00,31.0,27.0,29.65,WNW,299,0.0,0.0,85,0.00,,,0.00,LWC V2.00 B2112,2013-11-03 22:33:00,
2013-11-03 13:38:00,31.0,27.0,29.65,WNW,300,0.0,0.0,85,0.00,,,0.00,LWC V2.00 B2112,2013-11-03 22:38:00,
2013-11-03 13:43:00,31.2,26.6,29.65,WNW,299,0.0,0.0,83,0.00,,,0.00,LWC V2.00 B2112,2013-11-03 22:43:00,
2013-11-03 13:48:00,31.1,26.8,29.64,WNW,299,0.0,0.0,84,0.00,,,0.00,LWC V2.00 B2112,2013-11-03 22:48:00,
2013-11-03 13:53:00,31.0,27.3,29.64,WNW,300,0.0,0.0,86,0.00,,,0.00,LWC V2.00 B2112,2013-11-03 22:53:00,
2013-11-03 13:58:00,30.9,26.6,29.64,WNW,299,0.0,0.0,84,0.00,,,0.00,LWC V2.00 B2112,2013-11-03 22:58:00,
2013-11-03 14:03:00,30.9,26.6,29.64,WNW,299,0.0,0.0,84,0.00,,,0.00,LWC V2.00 B2112,2013-11-03 23:03:00,
2013-11-03 14:08:00,30.9,26.9,29.64,WNW,299,0.0,0.0,85,0.00,,,0.00,LWC V2.00 B2112,2013-11-03 23:08:00,
2013-11-03 14:13:00,30.9,26.9,29.64,WNW,299,0.0,0.0,85,0.00,,,0.00,LWC V2.00 B2112,2013-11-03 23:13:00,
2013-11-03 14:18:00,30.7,26.4,29.64,WNW,299,0.0,0.0,84,0.00,,,0.00,LWC V2.00 B2112,2013-11-03 23:18:00,
2013-11-03 14:23:00,30.7,26.2,29.64,WNW,298,0.0,0.0,83,0.00,,,0.00,LWC V2.00 B2112,2013-11-03 23:23:00,
2013-11-03 14:28:00,30.7,26.4,29.64,WNW,299,0.0,0.0,84,0.00,,,0.00,LWC V2.00 B2112,2013-11-03 23:28:00,
2013-11-03 14:33:00,30.4,26.2,29.64,WNW,299,0.0,0.0,84,0.00,,,0.00,LWC V2.00 B2112,2013-11-03 23:33:00,
2013-11-03 14:38:00,30.3,26.1,29.63,WNW,299,0.0,0.0,84,0.00,,,0.00,LWC V2.00 B2112,2013-11-03 23:38:00,
2013-11-03 14:43:00,30.2,26.2,29.63,WNW,299,0.0,0.0,85,0.00,,,0.00,LWC V2.00 B2112,2013-11-03 23:43:00,
2013-11-03 14:48:00,30.1,25.9,29.63,WNW,300,0.0,0.0,84,0.00,,,0.00,LWC V2.00 B2112,2013-11-03 23:48:00,
2013-11-03 14:53:00,29.7,26.0,29.63,WNW,299,0.0,0.0,86,0.00,,,0.00,LWC V2.00 B2112,2013-11-03 23:53:00,
2013-11-03 14:58:00,29.4,25.5,29.63,WNW,299,0.0,0.0,85,0.00,,,0.00,LWC V2.00 B2112,2013-11-03 23:58:00,
2013-11-03 15:03:00,29.4,25.5,29.63,WNW,298,0.0,0.0,85,0.00,,,0.00,LWC V2.00 B2112,2013-11-04 00:03:00,
2013-11-03 15:08:00,29.4,25.7,29.63,WNW,299,0.0,0.0,86,0.00,,,0.00,LWC V2.00 B2112,2013-11-04 00:08:00,
2013-11-03 15:13:00,29.4,25.7,29.62,WNW,299,0.0,0.0,86,0.00,,,0.00,LWC V2.00 B2112,2013-11-04 00:13:00,
2013-11-03 15:18:00,29.2,25.8,29.62,WNW,299,0.0,0.0,87,0.00,,,0.00,LWC V2.00 B2112,2013-11-04 00:18:00,
2013-11-03 15:23:00,29.1,25.7,29.62,WNW,300,0.0,0.0,87,0.00,,,0.00,LWC V2.00 B2112,2013-11-04 00:23:00,
2013-11-03 15:28:00,29.1,25.7,29.62,WNW,299,0.0,0.0,87,0.00,,,0.00,LWC V2.00 B2112,2013-11-04 00:28:00,
2013-11-03 15:33:00,29.0,25.9,29.62,WNW,299,0.0,0.0,88,0.00,,,0.00,LWC V2.00 B2112,2013-11-04 00:33:00,
2013-11-03 15:38:00,29.1,25.7,29.62,WNW,299,0.0,0.0,87,0.00,,,0.00,LWC V2.00 B2112,2013-11-04 00:38:00,
2013-11-03 15:43:00,29.2,25.8,29.62,WNW,299,0.0,0.0,87,0.00,,,0.00,LWC V2.00 B2112,2013-11-04 00:43:00,
2013-11-03 15:48:00,29.3,25.9,29.62,WNW,299,0.0,0.0,87,0.00,,,0.00,LWC V2.00 B2112,2013-11-04 00:48:00,
2013-11-03 15:53:00,29.4,25.7,29.62,WNW,299,0.0,0.0,86,0.00,,,0.00,LWC V2.00 B2112,2013-11-04 00:53:00,
2013-11-03 15:58:00,29.7,26.0,29.61,WNW,298,0.0,0.0,86,0.00,,,0.00,LWC V2.00 B2112,2013-11-04 00:58:00,
2013-11-03 16:03:00,29.7,26.0,29.62,WNW,300,0.0,0.0,86,0.00,,,0.00,LWC V2.00 B2112,2013-11-04 01:03:00,
2013-11-03 16:08:00,29.7,26.0,29.61,WNW,300,0.0,0.0,86,0.00,,,0.00,LWC V2.00 B2112,2013-11-04 01:08:00,
2013-11-03 16:13:00,29.6,25.9,29.61,WNW,300,0.0,0.0,86,0.00,,,0.00,LWC V2.00 B2112,2013-11-04 01:13:00,
2013-11-03 16:18:00,29.7,25.8,29.61,WNW,299,0.0,0.0,85,0.00,,,0.00,LWC V2.00 B2112,2013-11-04 01:18:00,
2013-11-03 16:23:00,29.6,25.7,29.61,WNW,299,0.0,0.0,85,0.00,,,0.00,LWC V2.00 B2112,2013-11-04 01:23:00,
2013-11-03 16:28:00,29.4,25.7,29.61,WNW,299,0.0,0.0,86,0.00,,,0.00,LWC V2.00 B2112,2013-11-04 01:28:00,
2013-11-03 16:33:00,29.1,25.7,29.61,WNW,299,0.0,0.0,87,0.00,,,0.00,LWC V2.00 B2112,2013-11-04 01:33:00,
2013-11-03 16:38:00,28.8,25.7,29.61,WNW,299,0.0,0.0,88,0.00,,,0.00,LWC V2.00 B2112,2013-11-04 01:38:00,
2013-11-03 16:43:00,28.6,25.5,29.61,WNW,299,0.0,0.0,88,0.00,,,0.00,LWC V2.00 B2112,2013-11-04 01:43:00,
2013-11-03 16:48:00,28.3,25.5,29.61,WNW,299,0.0,0.0,89,0.00,,,0.00,LWC V2.00 B2112,2013-11-04 01:48:00,
2013-11-03 16:53:00,28.1,25.6,29.61,WNW,299,0.0,0.0,90,0.00,,,0.00,LWC V2.00 B2112,2013-11-04 01:53:00,
2013-11-03 16:58:00,27.9,25.4,29.61,WNW,299,0.0,0.0,90,0.00,,,0.00,LWC V2.00 B2112,2013-11-04 01:58:00,
2013-11-03 17:03:00,28.1,25.6,29.60,WNW,300,0.0,0.0,90,0.00,,,0.00,LWC V2.00 B2112,2013-11-04 02:03:00,
2013-11-03 17:08:00,28.5,25.7,29.60,WNW,300,0.0,0.0,89,0.00,,,0.00,LWC V2.00 B2112,2013-11-04 02:08:00,
2013-11-03 17:13:00,28.7,25.9,29.60,WNW,299,0.0,0.0,89,0.00,,,0.00,LWC V2.00 B2112,2013-11-04 02:13:00,
2013-11-03 17:18:00,28.6,25.5,29.60,WNW,299,0.0,0.0,88,0.00,,,0.00,LWC V2.00 B2112,2013-11-04 02:18:00,
2013-11-03 17:23:00,28.0,25.5,29.60,WNW,299,0.0,0.0,90,0.00,,,0.00,LWC V2.00 B2112,2013-11-04 02:23:00,
2013-11-03 17:28:00,27.7,25.2,29.60,WNW,299,0.0,0.0,90,0.00,,,0.00,LWC V2.00 B2112,2013-11-04 02:28:00,
2013-11-03 17:33:00,27.6,25.3,29.59,WNW,299,0.0,0.0,91,0.00,,,0.00,LWC V2.00 B2112,2013-11-04 02:33:00,
2013-11-03 17:38:00,27.5,25.2,29.59,WNW,299,0.0,0.0,91,0.00,,,0.00,LWC V2.00 B2112,2013-11-04 02:38:00,
2013-11-03 17:43:00,27.2,24.9,29.59,WNW,299,0.0,0.0,91,0.00,,,0.00,LWC V2.00 B2112,2013-11-04 02:43:00,
2013-11-03 17:48:00,27.0,25.0,29.59,WNW,298,0.0,0.0,92,0.00,,,0.00,LWC V2.00 B2112,2013-11-04 02:48:00,
2013-11-03 17:53:00,26.8,24.8,29.59,WNW,299,0.0,0.0,92,0.00,,,0.00,LWC V2.00 B2112,2013-11-04 02:53:00,
2013-11-03 17:58:00,26.7,25.0,29.59,WNW,299,0.0,0.0,93,0.00,,,0.00,LWC V2.00 B2112,2013-11-04 02:58:00,
2013-11-03 18:03:00,26.9,24.9,29.59,WNW,299,0.0,0.0,92,0.00,,,0.00,LWC V2.00 B2112,2013-11-04 03:03:00,
2013-11-03 18:08:00,27.1,24.8,29.59,WNW,300,0.0,0.0,91,0.00,,,0.00,LWC V2.00 B2112,2013-11-04 03:08:00,
2013-11-03 18:13:00,27.1,24.8,29.59,WNW,299,0.0,0.0,91,0.00,,,0.00,LWC V2.00 B2112,2013-11-04 03:13:00,
2013-11-03 18:18:00,27.0,25.0,29.59,WNW,299,0.0,0.0,92,0.00,,,0.00,LWC V2.00 B2112,2013-11-04 03:18:00,
2013-11-03 18:23:00,26.8,24.5,29.59,ESE,107,0.0,0.0,91,0.00,,,0.00,LWC V2.00 B2112,2013-11-04 03:23:00,
2013-11-03 18:28:00,26.5,24.5,29.59,ESE,107,0.0,0.0,92,0.00,,,0.00,LWC V2.00 B2112,2013-11-04 03:28:00,
2013-11-03 18:33:00,26.2,24.2,29.59,East,81,0.0,0.0,92,0.00,,,0.00,LWC V2.00 B2112,2013-11-04 03:33:00,
2013-11-03 18:38:00,26.1,24.4,29.59,East,80,0.0,0.0,93,0.00,,,0.00,LWC V2.00 B2112,2013-11-04 03:38:00,
2013-11-03 18:43:00,26.1,24.4,29.59,East,80,0.0,0.0,93,0.00,,,0.00,LWC V2.00 B2112,2013-11-04 03:43:00,
2013-11-03 18:48:00,26.7,25.0,29.59,ENE,74,0.0,0.0,93,0.00,,,0.00,LWC V2.00 B2112,2013-11-04 03:48:00,
2013-11-03 18:53:00,27.5,25.2,29.59,NW,318,0.0,0.0,91,0.00,,,0.00,LWC V2.00 B2112,2013-11-04 03:53:00,
2013-11-03 18:58:00,27.1,24.8,29.59,NW,317,0.0,0.0,91,0.00,,,0.00,LWC V2.00 B2112,2013-11-04 03:58:00,
2013-11-03 19:03:00,27.1,24.8,29.58,NW,307,0.0,0.0,91,0.00,,,0.00,LWC V2.00 B2112,2013-11-04 04:03:00,
2013-11-03 19:08:00,27.1,24.8,29.58,NW,307,0.0,0.0,91,0.00,,,0.00,LWC V2.00 B2112,2013-11-04 04:08:00,
2013-11-03 19:13:00,26.7,24.4,29.58,NW,306,0.0,1.0,91,0.00,,,0.00,LWC V2.00 B2112,2013-11-04 04:13:00,
2013-11-03 19:18:00,26.4,24.1,29.58,NW,307,0.0,0.0,91,0.00,,,0.00,LWC V2.00 B2112,2013-11-04 04:18:00,
2013-11-03 19:23:00,26.1,24.1,29.58,NW,307,0.0,0.0,92,0.00,,,0.00,LWC V2.00 B2112,2013-11-04 04:23:00,
2013-11-03 19:28:00,26.3,24.6,29.58,NW,307,0.0,0.0,93,0.00,,,0.00,LWC V2.00 B2112,2013-11-04 04:28:00,
2013-11-03 19:33:00,26.9,25.2,29.58,NW,307,0.0,0.0,93,0.00,,,0.00,LWC V2.00 B2112,2013-11-04 04:33:00,
2013-11-03 19:38:00,27.0,25.0,29.58,NW,307,0.0,0.0,92,0.00,,,0.00,LWC V2.00 B2112,2013-11-04 04:38:00,
2013-11-03 19:43:00,27.2,25.2,29.58,NW,307,0.0,0.0,92,0.00,,,0.00,LWC V2.00 B2112,2013-11-04 04:43:00,
2013-11-03 19:48:00,27.0,24.7,29.58,NW,307,0.0,0.0,91,0.00,,,0.00,LWC V2.00 B2112,2013-11-04 04:48:00,
2013-11-03 19:53:00,26.6,24.3,29.58,NW,307,0.0,0.0,91,0.00,,,0.00,LWC V2.00 B2112,2013-11-04 04:53:00,
2013-11-03 19:58:00,26.4,24.4,29.58,NW,307,0.0,0.0,92,0.00,,,0.00,LWC V2.00 B2112,2013-11-04 04:58:00,
2013-11-03 20:03:00,26.4,24.7,29.57,NW,307,0.0,0.0,93,0.00,,,0.00,LWC V2.00 B2112,2013-11-04 05:03:00,
2013-11-03 20:08:00,26.9,25.2,29.57,NW,307,0.0,0.0,93,0.00,,,0.00,LWC V2.00 B2112,2013-11-04 05:08:00,
2013-11-03 20:13:00,26.6,24.6,29.57,NW,307,0.0,0.0,92,0.00,,,0.00,LWC V2.00 B2112,2013-11-04 05:13:00,
2013-11-03 20:18:00,26.5,24.8,29.57,NW,307,0.0,0.0,93,0.00,,,0.00,LWC V2.00 B2112,2013-11-04 05:18:00,
2013-11-03 20:23:00,26.4,24.7,29.57,NW,307,0.0,0.0,93,0.00,,,0.00,LWC V2.00 B2112,2013-11-04 05:23:00,
2013-11-03 20:28:00,26.5,24.8,29.57,NW,307,0.0,0.0,93,0.00,,,0.00,LWC V2.00 B2112,2013-11-04 05:28:00,
2013-11-03 20:33:00,26.5,24.8,29.57,NW,306,0.0,0.0,93,0.00,,,0.00,LWC V2.00 B2112,2013-11-04 05:33:00,
2013-11-03 20:38:00,26.5,24.8,29.56,NW,307,0.0,1.0,93,0.00,,,0.00,LWC V2.00 B2112,2013-11-04 05:38:00,
2013-11-03 20:43:00,26.5,24.8,29.56,NW,307,0.0,0.0,93,0.00,,,0.00,LWC V2.00 B2112,2013-11-04 05:43:00,
2013-11-03 20:48:00,26.9,25.2,29.56,NW,306,0.0,0.0,93,0.00,,,0.00,LWC V2.00 B2112,2013-11-04 05:48:00,
2013-11-03 20:53:00,26.9,24.9,29.56,NW,306,0.0,0.0,92,0.00,,,0.00,LWC V2.00 B2112,2013-11-04 05:53:00,
2013-11-03 20:58:00,26.7,24.7,29.56,NW,306,0.0,0.0,92,0.00,,,0.00,LWC V2.00 B2112,2013-11-04 05:58:00,
2013-11-03 21:03:00,26.6,24.6,29.56,NW,307,0.0,0.0,92,0.00,,,0.00,LWC V2.00 B2112,2013-11-04 06:03:00,
2013-11-03 21:08:00,26.5,24.8,29.56,NW,307,0.0,0.0,93,0.00,,,0.00,LWC V2.00 B2112,2013-11-04 06:08:00,
2013-11-03 21:13:00,26.6,24.9,29.56,NW,307,0.0,0.0,93,0.00,,,0.00,LWC V2.00 B2112,2013-11-04 06:13:00,
2013-11-03 21:18:00,27.3,25.3,29.56,NW,307,0.0,0.0,92,0.00,,,0.00,LWC V2.00 B2112,2013-11-04 06:18:00,
2013-11-03 21:23:00,28.0,25.5,29.56,NW,307,0.0,0.0,90,0.00,,,0.00,LWC V2.00 B2112,2013-11-04 06:23:00,
2013-11-03 21:28:00,28.3,25.5,29.56,NW,306,0.0,0.0,89,0.00,,,0.00,LWC V2.00 B2112,2013-11-04 06:28:00,
2013-11-03 21:33:00,28.3,25.5,29.56,WNW,295,0.0,0.0,89,0.00,,,0.00,LWC V2.00 B2112,2013-11-04 06:33:00,
2013-11-03 21:38:00,28.5,25.4,29.56,WNW,295,0.0,0.0,88,0.00,,,0.00,LWC V2.00 B2112,2013-11-04 06:38:00,
2013-11-03 21:43:00,28.2,25.1,29.56,WNW,295,0.0,0.0,88,0.00,,,0.00,LWC V2.00 B2112,2013-11-04 06:43:00,
2013-11-03 21:48:00,27.7,24.9,29.55,WNW,295,0.0,0.0,89,0.00,,,0.00,LWC V2.00 B2112,2013-11-04 06:48:00,
2013-11-03 21:53:00,27.2,24.7,29.56,WNW,295,0.0,0.0,90,0.00,,,0.00,LWC V2.00 B2112,2013-11-04 06:53:00,
2013-11-03 21:58:00,26.7,24.4,29.55,WNW,295,0.0,0.0,91,0.00,,,0.00,LWC V2.00 B2112,2013-11-04 06:58:00,
2013-11-03 22:03:00,26.6,24.3,29.55,WNW,295,0.0,0.0,91,0.00,,,0.00,LWC V2.00 B2112,2013-11-04 07:03:00,
2013-11-03 22:08:00,26.6,24.3,29.55,WNW,295,0.0,0.0,91,0.00,,,0.00,LWC V2.00 B2112,2013-11-04 07:08:00,
2013-11-03 22:13:00,26.5,24.2,29.55,NW,304,0.0,0.0,91,0.00,,,0.00,LWC V2.00 B2112,2013-11-04 07:13:00,
2013-11-03 22:18:00,26.5,24.0,29.55,NW,304,0.0,0.0,90,0.00,,,0.00,LWC V2.00 B2112,2013-11-04 07:18:00,
2013-11-03 22:23:00,26.6,24.1,29.55,NW,304,0.0,0.0,90,0.00,,,0.00,LWC V2.00 B2112,2013-11-04 07:23:00,
2013-11-03 22:28:00,26.8,24.0,29.55,NW,304,0.0,0.0,89,0.00,,,0.00,LWC V2.00 B2112,2013-11-04 07:28:00,
2013-11-03 22:33:00,26.9,24.1,29.55,NW,304,0.0,0.0,89,0.00,,,0.00,LWC V2.00 B2112,2013-11-04 07:33:00,
2013-11-03 22:38:00,26.8,24.0,29.55,NW,304,0.0,0.0,89,0.00,,,0.00,LWC V2.00 B2112,2013-11-04 07:38:00,
2013-11-03 22:43:00,26.6,23.5,29.55,NW,304,0.0,0.0,88,0.00,,,0.00,LWC V2.00 B2112,2013-11-04 07:43:00,
2013-11-03 22:48:00,26.3,23.5,29.55,NW,304,0.0,0.0,89,0.00,,,0.00,LWC V2.00 B2112,2013-11-04 07:48:00,
2013-11-03 22:53:00,26.5,23.4,29.54,NW,304,0.0,0.0,88,0.00,,,0.00,LWC V2.00 B2112,2013-11-04 07:53:00,
2013-11-03 22:58:00,26.3,23.2,29.54,NW,304,0.0,0.0,88,0.00,,,0.00,LWC V2.00 B2112,2013-11-04 07:58:00,
2013-11-03 23:03:00,26.0,23.2,29.54,NW,304,0.0,0.0,89,0.00,,,0.00,LWC V2.00 B2112,2013-11-04 08:03:00,
2013-11-03 23:08:00,26.1,23.3,29.54,NW,304,0.0,0.0,89,0.00,,,0.00,LWC V2.00 B2112,2013-11-04 08:08:00,
2013-11-03 23:13:00,26.1,23.0,29.54,NW,304,0.0,0.0,88,0.00,,,0.00,LWC V2.00 B2112,2013-11-04 08:13:00,
2013-11-03 23:18:00,25.9,22.8,29.54,WNW,303,0.0,0.0,88,0.00,,,0.00,LWC V2.00 B2112,2013-11-04 08:18:00,
2013-11-03 23:23:00,25.6,22.8,29.54,WNW,303,0.0,0.0,89,0.00,,,0.00,LWC V2.00 B2112,2013-11-04 08:23:00,
2013-11-03 23:28:00,25.3,22.5,29.54,WNW,303,0.0,0.0,89,0.00,,,0.00,LWC V2.00 B2112,2013-11-04 08:28:00,
2013-11-03 23:33:00,25.2,22.7,29.54,WNW,303,0.0,0.0,90,0.00,,,0.00,LWC V2.00 B2112,2013-11-04 08:33:00,
2013-11-03 23:38:00,25.1,22.6,29.54,WNW,303,0.0,0.0,90,0.00,,,0.00,LWC V2.00 B2112,2013-11-04 08:38:00,
2013-11-03 23:43:00,25.1,22.3,29.53,WNW,303,0.0,0.0,89,0.00,,,0.00,LWC V2.00 B2112,2013-11-04 08:43:00,
2013-11-03 23:48:00,25.0,22.5,29.53,WNW,303,0.0,0.0,90,0.00,,,0.00,LWC V2.00 B2112,2013-11-04 08:48:00,
2013-11-03 23:53:00,24.8,22.3,29.53,WNW,303,0.0,0.0,90,0.00,,,0.00,LWC V2.00 B2112,2013-11-04 08:53:00,
2013-11-03 23:58:00,24.6,22.1,29.53,WNW,303,0.0,0.0,90,0.00,,,0.00,LWC V2.00 B2112,2013-11-04 08:58:00,